Temperature
18 18 18 18 18 18 18 18 17 17 17 17 17 17 17 17 17 17 17 17 17 17 17 17 17 17 17 17 17 17 16 16 16 16 16 16 16 16 16 16 16 15 15
18 18 18 18 18 18 17 18 18 17 17 17 17 17 17 17 17 17 17 17 17 17 17 17 17 17 17 17 17 17 16 16 16 16 16 16 16 16 16 16 15 15 15
18 18 18 18 18 17 17 17 17 17 17 17 17 17 17 17 17 17 17 17 17 17 17 17 17 17 17 17 17 17 16 16 16 16 16 16 16 16 16 15 15 15 15
18 18 18 18 18 17 17 17 17 17 17 17 17 17 17 17 17 17 17 17 17 17 17 17 17 17 17 17 17 17 16 16 16 16 16 16 16 16 16 15 15 15 15
18 18 18 18 18 17 18 18 17 17 17 17 17 17 17 17 17 17 17 17 17 17 17 17 17 17 17 17 17 17 16 16 16 16 16 16 16 16 16 15 15 15 15
18 18 18 18 18 18 18 17 17 17 17 17 17 17 17 17 17 17 17 17 17 17 17 17 17 17 17 17 17 17 16 16 16 16 16 16 16 16 16 16 15 15 15
18 18 18 18 18 18 18 18 17 17 17 17 17 17 17 17 17 17 17 17 17 17 17 17 17 17 17 17 17 16 16 16 16 16 16 16 16 16 16 16 15 15 15
18 18 18 18 18 18 18 18 17 17 18 17 17 17 17 18 18 17 17 17 17 17 17 17 17 17 17 17 17 16 16 16 16 16 16 16 16 16 15 15 15 15 15
18 18 18 18 18 18 18 18 17 17 18 17 17 17 17 18 18 18 18 18 17 17 17 17 17 17 17 17 17 16 16 16 16 16 16 16 16 16 15 15 15 15 15
18 18 18 18 18 18 18 18 18 17 17 18 17 17 17 18 17 17 18 18 17 17 17 17 17 17 17 17 17 17 16 16 16 16 16 16 16 16 15 15 15 15 15
18 18 18 18 18 18 18 18 18 18 18 18 18 17 17 17 17 17 17 17 17 17 17 17 17 17 17 17 17 17 16 16 16 16 16 15 15 15 15 15 15 15 15
18 18 18 18 18 18 18 18 18 18 18 18 18 17 18 17 18 17 17 17 17 17 17 17 17 17 17 17 16 16 16 16 16 16 16 15 15 15 15 15 15 14 14
18 18 18 18 18 18 18 17 17 17 17 17 17 17 17 17 17 17 17 17 17 17 17 17 17 17 17 16 16 16 16 16 16 16 15 15 15 15 15 14 14 14 14
18 18 18 18 18 17 17 17 17 17 17 17 17 17 17 17 17 17 17 17 17 16 16 16 16 16 16 16 16 16 16 16 15 15 15 15 15 14 14 14 14 14 14
18 18 18 17 17 17 17 17 17 17 17 17 17 17 17 17 17 17 17 17 17 16 16 16 16 16 16 15 15 15 15 15 15 15 14 14 14 14 14 14 13 13 13
18 18 17 17 17 17 17 17 17 17 17 17 17 17 17 17 17 17 17 16 16 16 16 16 15 15 15 15 15 15 15 14 14 14 14 14 14 13 13 13 13 13 13
17 17 17 17 17 17 17 17 17 17 17 17 17 16 16 16 16 16 16 16 16 16 16 15 15 15 14 14 14 14 14 14 14 13 13 13 13 13 13 12 12 12 12
17 17 17 17 17 17 17 17 17 16 16 16 16 16 16 16 16 16 16 16 16 16 15 15 14 14 14 14 13 13 13 13 13 12 12 12 12 12 12 12 12 11 11
17 17 17 17 17 17 16 16 16 16 16 16 16 16 16 16 16 15 15 15 15 15 15 15 14 14 13 13 13 13 12 12 12 12 12 12 11 11 11 11 11 11 11
17 17 16 16 16 16 16 16 16 16 16 15 15 15 15 15 15 15 15 15 15 15 14 14 14 13 13 13 12 12 12 12 11 11 11 11 11 11 10 10 10 10 10
16 16 16 16 16 16 16 15 15 15 15 15 15 15 15 15 15 15 15 15 14 14 14 13 13 13 12 12 12 12 11 11 11 11 11 10 10 10 10 10 9 9 9
16 16 16 16 15 15 15 15 15 15 15 15 14 14 14 14 14 14 14 14 14 13 13 13 13 12 12 12 11 11 11 11 10 10 10 10 10 9 9 9 9 9 9
16 15 15 15 15 15 15 14 14 14 14 14 14 14 14 13 13 13 13 13 13 13 13 12 12 12 12 11 11 11 11 10 10 10 10 9 9 9 9 9 8 8 8
15 15 15 15 15 14 14 14 14 14 14 14 13 13 13 13 13 13 13 13 12 12 12 12 12 11 11 11 11 11 10 10 9 9 9 9 9 8 8 8 8 8 8
15 15 14 14 14 14 14 14 14 13 13 13 13 12 12 12 12 12 12 12 12 11 11 11 11 11 10 10 10 10 10 9 9 9 9 9 8 8 8 8 8 7 7
14 14 14 14 14 13 13 13 13 13 13 13 12 12 12 12 11 11 11 11 11 11 10 10 10 10 10 9 9 9 9 9 9 8 8 8 8 8 8 8 7 7 7
Wind_Speed
5 6 5 6 6 6 6 5 3 2 2 2 3 7 9 10 10 10 11 12 13 13 12 12 12 11 11 11 10 10 10 9 9 8 8 9 8 8 8 7 7 7 6
8 6 5 5 6 7 7 6 5 3 2 2 3 6 9 10 10 11 11 12 13 13 13 12 12 12 12 11 11 10 10 10 9 9 8 9 8 8 8 8 7 7 7
11 8 5 4 6 8 7 5 4 3 2 2 2 4 7 8 10 11 12 12 12 13 13 13 12 12 12 12 12 11 11 10 10 10 9 9 9 9 9 9 8 8 8
11 8 5 4 7 7 6 3 2 2 1 1 2 2 3 6 9 10 11 12 12 12 13 14 14 14 13 13 13 12 12 12 11 11 10 10 10 10 10 10 9 9 9
11 8 5 5 7 5 3 3 2 3 2 2 2 2 3 3 5 9 9 11 13 13 13 14 15 15 15 14 14 14 14 13 13 13 12 11 11 11 11 11 11 11 11
10 8 5 5 6 4 3 3 3 2 3 3 2 2 2 3 4 5 7 10 12 14 14 14 14 15 16 15 15 14 14 14 14 14 14 13 13 13 13 13 12 12 12
9 7 4 4 5 4 5 5 3 3 2 2 2 1 3 2 3 4 5 6 8 12 14 14 14 13 13 16 16 16 15 15 15 15 15 14 14 14 14 14 14 13 13
9 8 6 4 4 4 4 4 4 3 2 2 3 2 2 4 3 3 3 5 6 8 9 12 13 13 13 12 14 17 17 16 16 15 15 14 14 14 14 14 14 13 13
9 8 7 6 5 4 4 4 5 5 3 2 3 4 3 3 2 3 2 3 4 4 5 8 11 12 12 12 12 14 16 17 16 15 14 14 14 14 14 14 13 13 12
7 8 7 6 5 4 5 5 5 4 4 3 2 2 3 4 3 1 3 2 2 3 4 4 6 8 10 10 10 12 14 16 15 15 14 13 13 13 13 13 12 12 11
5 6 7 6 5 4 5 5 4 4 4 4 3 2 2 1 2 3 2 2 1 1 2 2 3 4 6 8 8 9 12 14 14 13 13 12 12 12 12 11 11 10 10
3 4 5 5 5 4 5 5 5 5 5 4 4 3 3 3 3 3 3 3 2 2 1 0 1 2 4 5 7 8 9 10 11 12 11 11 10 10 9 9 8 8 8
3 4 4 4 4 5 5 5 5 4 5 4 4 4 3 4 3 3 3 3 2 1 1 1 0 2 3 3 4 5 6 8 8 9 9 8 7 7 7 7 6 5 5
3 3 3 3 4 5 5 4 4 4 3 4 4 4 3 3 3 3 4 3 2 1 1 1 1 1 2 3 4 5 4 5 7 7 7 8 7 7 6 6 5 5 4
3 3 3 3 3 3 3 3 2 2 2 2 2 2 2 2 2 2 3 4 4 3 3 2 1 1 2 4 4 5 5 4 6 7 8 8 8 7 7 6 6 5 4
2 2 2 2 2 2 2 3 2 2 2 1 2 2 1 1 1 1 2 2 3 4 3 2 2 1 2 3 4 6 6 7 7 8 8 7 7 7 6 6 6 5 5
2 2 2 3 2 2 2 3 2 3 3 1 1 1 0 0 0 0 0 1 2 3 3 1 1 1 2 3 4 6 6 6 7 8 9 8 8 7 8 8 7 7 6
2 2 2 3 3 3 3 3 3 3 3 2 2 2 1 1 1 1 0 0 1 2 3 3 1 1 1 3 4 4 5 5 6 8 9 9 9 9 9 8 8 8 7
3 3 4 4 3 2 3 3 3 3 3 2 2 2 1 2 2 1 1 1 0 1 2 3 2 1 1 2 3 3 4 4 5 6 7 8 8 8 8 8 8 8 7
4 4 3 3 3 3 3 3 4 4 4 3 3 3 2 2 2 1 1 1 2 3 3 4 3 2 1 1 2 2 3 2 2 4 6 6 7 7 7 7 7 7 7
4 4 4 3 3 3 3 4 4 5 5 4 4 4 4 5 5 4 3 2 3 3 3 4 3 2 1 1 1 1 3 2 2 2 3 3 4 3 3 4 6 6 6
4 4 4 4 4 3 5 6 5 5 5 4 4 4 5 6 7 8 9 8 6 5 4 3 2 2 1 1 1 2 2 2 1 0 2 1 2 1 1 2 4 6 5
4 4 3 4 4 4 6 7 7 5 5 4 4 3 3 5 6 5 8 10 10 9 5 4 4 2 1 1 3 3 3 2 2 1 2 1 1 1 2 2 3 4 4
5 4 4 4 4 4 6 7 8 6 5 4 4 3 4 3 4 5 6 7 7 7 5 4 3 2 2 2 3 4 4 4 3 2 2 2 1 1 2 3 3 4 4
5 4 4 5 5 3 5 7 8 5 5 4 3 3 4 4 5 7 7 7 6 5 8 10 9 8 8 8 8 5 4 4 2 1 1 2 1 0 1 1 4 5 6
5 5 5 4 5 3 5 7 8 5 4 3 3 3 4 5 6 7 6 6 5 2 3 5 6 8 8 8 8 5 4 4 2 0 1 1 1 1 1 1 2 4 5
Wind_Direction
163 168 175 183 193 198 196 198 204 206 211 186 148 141 144 149 155 159 167 169 170 170 171 171 172 173 171 170 172 172 172 173 173 174 172 170 169 170 170 169 169 169 168
168 170 177 187 200 203 197 187 185 181 181 165 142 145 153 158 162 168 173 178 181 180 181 181 181 181 182 182 183 183 183 184 185 185 185 184 184 186 186 186 186 187 186
168 167 170 182 196 197 184 170 172 165 172 166 164 159 159 168 171 175 179 182 186 190 192 192 192 192 193 194 194 194 193 194 194 194 197 198 200 200 199 196 197 198 197
169 164 168 182 187 177 165 152 154 150 166 170 174 186 168 170 179 184 187 190 191 196 201 203 202 202 203 204 204 203 202 204 203 204 207 209 209 208 207 207 207 206 206
171 164 173 182 175 163 162 174 155 160 168 185 191 193 197 188 187 192 196 200 200 202 205 209 211 210 211 212 212 211 210 211 212 213 215 215 215 214 215 216 217 215 216
171 166 171 176 164 155 166 168 170 175 177 183 203 209 223 216 201 199 202 202 206 208 209 211 214 218 220 221 220 220 219 218 219 220 221 221 221 220 221 222 223 223 223
176 167 165 168 166 169 180 176 170 182 193 153 106 350 323 272 226 217 204 197 205 210 210 211 212 215 222 226 226 224 224 223 223 223 224 225 227 226 225 224 225 226 227
183 179 171 177 177 170 175 180 167 161 199 164 147 122 343 336 311 244 214 206 210 208 212 217 217 217 220 222 226 228 228 228 227 226 226 227 228 227 226 226 227 228 229
192 186 181 178 181 177 187 195 183 172 192 216 176 155 165 223 285 316 249 216 207 206 213 218 215 217 218 221 226 229 229 230 228 227 226 226 227 227 227 226 226 226 226
193 190 186 184 186 185 191 202 193 184 175 202 220 203 185 168 169 289 319 286 233 216 214 211 209 211 213 214 218 223 225 226 226 228 228 226 224 224 224 222 222 224 226
194 195 191 187 188 192 196 200 189 184 184 189 195 194 193 185 176 174 249 295 315 283 226 199 189 196 212 213 216 220 222 222 221 222 224 223 221 220 221 221 223 223 224
201 207 202 196 197 196 199 201 196 192 194 191 192 187 184 186 196 186 210 233 248 291 304 222 161 175 197 197 204 210 209 212 214 215 218 220 217 213 214 217 220 224 226
210 219 213 205 204 204 201 196 195 201 194 190 196 199 201 206 192 178 184 211 222 248 288 334 180 167 178 164 179 200 202 200 200 202 204 209 205 201 202 201 200 204 207
210 210 203 203 201 197 201 190 192 200 188 195 205 200 201 216 199 188 182 178 207 252 237 238 10 91 122 135 151 162 150 176 185 187 187 188 187 185 185 184 182 181 182
201 189 184 182 181 175 170 163 166 185 173 188 198 199 208 231 210 204 189 176 177 212 240 218 192 110 120 122 139 140 141 148 159 164 169 173 171 168 168 167 163 158 150
174 157 157 154 149 150 152 151 149 158 141 163 173 161 188 232 230 200 182 179 178 188 217 215 196 174 134 118 112 115 117 118 126 143 151 153 153 150 146 142 139 132 127
153 149 153 138 127 126 134 130 136 132 135 137 129 136 157 152 168 260 179 177 185 174 204 225 153 143 132 124 106 107 111 115 117 126 130 131 132 136 134 128 123 119 115
140 132 121 111 116 117 122 131 141 128 129 124 108 93 63 61 47 27 54 143 188 181 177 188 173 160 151 144 131 122 120 118 116 114 120 122 121 120 121 121 120 115 112
107 95 98 106 106 107 110 115 122 115 117 116 110 110 97 87 59 29 57 76 167 132 137 152 157 138 114 131 118 111 110 107 113 116 121 124 126 125 121 119 115 109 106
103 94 92 96 100 95 93 100 105 103 98 84 77 78 76 87 83 73 71 92 116 110 110 123 125 107 94 115 111 114 99 75 95 106 106 113 119 121 119 120 116 112 107
105 104 97 87 82 90 96 109 109 109 100 87 67 60 64 76 74 75 80 88 108 112 110 112 115 95 86 119 150 148 129 108 62 86 96 101 104 101 113 128 129 127 122
95 95 95 95 84 89 105 110 114 111 108 104 87 67 62 58 67 71 77 81 98 117 128 122 118 127 146 158 133 133 134 131 128 27 117 116 129 108 195 183 165 155 148
98 92 90 98 96 96 113 111 108 111 107 101 97 88 80 70 69 72 69 67 63 68 94 128 127 139 152 185 147 125 124 118 135 181 130 126 124 201 237 210 196 189 181
108 102 97 102 97 90 110 115 112 105 99 94 93 98 100 83 84 91 82 71 60 48 61 86 114 116 116 129 139 144 137 109 78 52 101 130 182 243 258 243 224 214 214
108 100 94 99 101 92 109 117 116 105 98 86 77 80 96 92 93 100 95 88 71 49 61 78 85 86 90 96 107 107 106 102 74 11 16 114 155 221 306 284 250 239 240
119 113 100 89 95 96 112 120 121 115 107 95 68 59 77 99 101 104 105 105 97 66 57 55 57 60 66 73 82 102 133 128 120 102 302 117 113 104 38 305 278 261 258
Height
1571 1572 1574 1575 1576 1577 1578 1579 1580 1581 1581 1582 1582 1582 1583 1583 1583 1584 1584 1584 1585 1585 1586 1586 1586 1587 1588 1588 1589 1590 1590 1591 1592 1592 1593 1593 1594 1594 1594 1595 1595 1595 1596
1571 1573 1574 1575 1576 1578 1579 1579 1580 1581 1582 1582 1583 1583 1583 1584 1584 1584 1584 1585 1585 1585 1586 1586 1587 1587 1588 1588 1589 1589 1590 1591 1591 1592 1592 1593 1593 1594 1594 1594 1595 1595 1595
1571 1572 1574 1575 1576 1577 1579 1579 1580 1581 1582 1582 1583 1583 1583 1584 1584 1584 1585 1585 1585 1586 1586 1586 1587 1587 1588 1588 1588 1589 1589 1590 1591 1591 1592 1592 1593 1593 1594 1594 1594 1594 1595
1571 1572 1573 1575 1576 1577 1578 1579 1580 1581 1582 1582 1583 1583 1583 1583 1584 1584 1585 1585 1585 1585 1586 1586 1586 1587 1587 1588 1588 1588 1589 1589 1590 1590 1591 1591 1592 1592 1592 1593 1593 1593 1594
1570 1572 1573 1574 1575 1577 1578 1579 1580 1580 1581 1582 1582 1582 1583 1583 1583 1584 1584 1584 1585 1585 1585 1586 1586 1586 1586 1587 1587 1587 1588 1588 1588 1589 1589 1590 1590 1591 1591 1591 1591 1592 1592
1569 1571 1572 1573 1574 1576 1577 1578 1578 1579 1580 1581 1581 1581 1582 1582 1582 1583 1583 1583 1584 1584 1585 1585 1585 1585 1585 1586 1586 1586 1586 1587 1587 1587 1588 1588 1589 1589 1589 1589 1590 1590 1590
1568 1569 1571 1572 1573 1574 1575 1576 1577 1578 1578 1579 1580 1580 1580 1580 1581 1581 1581 1582 1582 1583 1583 1584 1584 1584 1584 1584 1584 1585 1585 1585 1585 1586 1586 1586 1587 1587 1587 1587 1587 1587 1587
1566 1568 1569 1570 1572 1573 1573 1574 1575 1576 1577 1578 1578 1578 1579 1580 1579 1579 1579 1580 1580 1581 1582 1582 1583 1583 1583 1583 1583 1583 1583 1583 1583 1583 1584 1584 1584 1585 1585 1585 1585 1585 1585
1565 1566 1567 1568 1570 1570 1571 1572 1573 1574 1575 1576 1577 1577 1577 1577 1577 1577 1577 1578 1578 1579 1579 1580 1580 1580 1580 1580 1581 1581 1581 1581 1581 1581 1581 1581 1582 1582 1582 1582 1582 1582 1582
1563 1564 1565 1566 1567 1568 1569 1570 1571 1572 1573 1573 1574 1575 1576 1576 1576 1576 1576 1576 1576 1576 1577 1577 1577 1578 1578 1578 1578 1578 1578 1578 1578 1578 1579 1579 1579 1578 1578 1578 1578 1578 1578
1561 1562 1563 1564 1565 1566 1567 1568 1569 1570 1570 1571 1572 1572 1573 1573 1574 1574 1574 1574 1574 1574 1574 1575 1575 1575 1575 1575 1575 1575 1576 1576 1576 1576 1576 1575 1575 1575 1575 1575 1575 1575 1575
1558 1560 1561 1561 1562 1563 1564 1565 1566 1567 1568 1568 1569 1570 1570 1571 1571 1571 1571 1571 1571 1572 1572 1572 1572 1572 1572 1572 1572 1572 1572 1572 1572 1572 1572 1572 1572 1572 1572 1571 1571 1571 1571
1556 1557 1558 1558 1559 1560 1562 1563 1563 1564 1565 1566 1566 1567 1567 1568 1569 1569 1569 1568 1568 1569 1569 1569 1569 1569 1569 1569 1569 1569 1568 1568 1568 1568 1569 1569 1568 1568 1568 1568 1568 1568 1568
1553 1554 1555 1556 1556 1557 1558 1560 1561 1561 1562 1563 1563 1564 1564 1565 1565 1565 1566 1566 1565 1565 1565 1565 1565 1565 1565 1565 1565 1565 1565 1565 1565 1564 1565 1564 1565 1565 1565 1564 1565 1565 1565
1551 1552 1553 1553 1554 1555 1556 1557 1557 1558 1559 1560 1560 1560 1561 1561 1561 1562 1562 1562 1563 1561 1561 1561 1562 1561 1562 1562 1562 1562 1561 1561 1561 1560 1561 1561 1561 1561 1561 1561 1561 1561 1561
1549 1549 1550 1551 1552 1553 1553 1554 1555 1555 1556 1556 1557 1557 1557 1557 1557 1558 1558 1558 1558 1558 1557 1557 1557 1558 1558 1558 1558 1558 1558 1558 1558 1558 1558 1558 1558 1557 1557 1558 1558 1558 1558
1547 1548 1548 1549 1550 1550 1551 1552 1552 1553 1553 1553 1554 1554 1554 1554 1554 1554 1554 1554 1554 1554 1553 1553 1554 1554 1555 1555 1555 1555 1555 1555 1555 1555 1555 1555 1555 1555 1555 1555 1555 1555 1555
1546 1546 1547 1547 1548 1548 1548 1549 1549 1550 1550 1550 1551 1551 1551 1551 1550 1550 1550 1550 1550 1550 1550 1549 1550 1551 1552 1552 1552 1552 1552 1553 1553 1552 1553 1553 1553 1553 1552 1552 1552 1552 1552
1544 1545 1545 1545 1546 1546 1546 1547 1547 1547 1548 1548 1548 1548 1548 1548 1547 1547 1547 1547 1547 1547 1547 1546 1546 1548 1549 1549 1549 1550 1550 1550 1551 1551 1551 1551 1551 1551 1551 1550 1550 1549 1549
1543 1543 1543 1543 1544 1544 1545 1545 1545 1545 1545 1546 1546 1546 1545 1545 1545 1545 1544 1544 1544 1544 1544 1544 1544 1545 1546 1547 1547 1547 1548 1548 1549 1549 1549 1549 1550 1550 1549 1549 1549 1548 1548
1542 1542 1542 1542 1542 1542 1543 1543 1543 1544 1544 1544 1544 1544 1544 1544 1543 1543 1543 1542 1542 1542 1542 1542 1542 1543 1544 1544 1545 1545 1545 1546 1547 1547 1548 1548 1548 1548 1548 1548 1548 1548 1547
1540 1540 1540 1540 1540 1540 1541 1542 1542 1542 1542 1542 1542 1542 1543 1543 1543 1542 1542 1541 1541 1541 1541 1541 1541 1541 1542 1543 1543 1543 1544 1544 1544 1546 1546 1547 1547 1547 1547 1547 1547 1547 1547
1539 1539 1539 1539 1539 1539 1539 1540 1541 1541 1541 1541 1541 1542 1542 1542 1542 1542 1541 1541 1541 1540 1541 1541 1541 1541 1541 1541 1542 1542 1542 1543 1543 1544 1545 1545 1546 1546 1547 1547 1547 1546 1546
1539 1539 1538 1538 1538 1538 1538 1539 1540 1540 1541 1541 1541 1541 1542 1541 1541 1541 1541 1540 1540 1540 1540 1540 1540 1540 1540 1541 1541 1542 1542 1542 1543 1544 1545 1545 1545 1546 1546 1546 1546 1546 1546
1538 1538 1538 1537 1537 1537 1538 1538 1539 1540 1540 1541 1541 1541 1542 1541 1541 1541 1541 1540 1540 1540 1540 1540 1540 1540 1540 1540 1540 1541 1541 1542 1542 1543 1544 1544 1544 1545 1545 1546 1546 1546 1546
1538 1538 1538 1537 1537 1537 1538 1538 1539 1540 1540 1540 1541 1541 1541 1541 1541 1541 1541 1540 1540 1540 1541 1541 1540 1540 1540 1540 1540 1541 1541 1541 1542 1542 1543 1543 1543 1544 1544 1545 1545 1545 1545